When you browse on this site, cookies collect data to enhance your experience and personalize the content and advertising you see.
Visit our Privacy Policy to learn more. By continuing to use the site, you agree to this use of cookies and data.
  • Em Portugal
  • Lista de países
  • Para 7 dias
  • Temperatura da água
  • Mapas de satélite
  • Mapa do tempo
  • Widgets de tempo
  • user-avatar
    Iniciar Sessão

    Previsão horária em Miszkolc

    Hoje, 18 Julho, Quinta-feira

    Tempo Temperatura Precipitação Vento Pressão Humidade
    00:00 +16°C° 0 mm 1 m/s 746 mmHg 78%
    01:00 +15°C° 0 mm 1 m/s 746 mmHg 79%
    02:00 +15°C° 0 mm 1 m/s 746 mmHg 80%
    03:00 +15°C° 0 mm 1 m/s 746 mmHg 81%
    04:00 +14°C° 0 mm 1 m/s 746 mmHg 81%
    05:00 +16°C° 0 mm 1 m/s 746 mmHg 76%
    06:00 +19°C° 0 mm 1 m/s 746 mmHg 71%
    07:00 +21°C° 0 mm 1 m/s 746 mmHg 63%
    08:00 +22°C° 0 mm 1 m/s 746 mmHg 58%
    09:00 +24°C° 0 mm 1 m/s 746 mmHg 53%
    10:00 +25°C° 0 mm 2 m/s 746 mmHg 48%
    11:00 +25°C° 0 mm 2 m/s 746 mmHg 47%
    12:00 +26°C° 0 mm 2 m/s 746 mmHg 46%
    13:00 +26°C° 0 mm 2 m/s 746 mmHg 46%
    14:00 +26°C° 0.1 mm 2 m/s 746 mmHg 49%
    15:00 +26°C° 0.1 mm 2 m/s 746 mmHg 51%
    16:00 +26°C° 0.1 mm 2 m/s 746 mmHg 54%
    17:00 +24°C° 0.5 mm 2 m/s 746 mmHg 62%
    18:00 +23°C° 0.5 mm 1 m/s 746 mmHg 69%
    19:00 +21°C° 0.5 mm 1 m/s 746 mmHg 77%
    20:00 +20°C° 0.2 mm 1 m/s 746 mmHg 80%
    21:00 +19°C° 0.2 mm 1 m/s 747 mmHg 83%
    22:00 +18°C° 0.2 mm 1 m/s 747 mmHg 87%
    23:00 +16°C° 0 mm 1 m/s 747 mmHg 88%

    Amanhã, 19 Julho, Sexta-feira

    Tempo Temperatura Precipitação Vento Pressão Humidade
    00:00 +16°C° 0 mm 1 m/s 747 mmHg 90%
    01:00 +15°C° 0 mm 1 m/s 748 mmHg 91%
    02:00 +15°C° 0 mm 1 m/s 748 mmHg 92%
    03:00 +15°C° 0 mm 1 m/s 748 mmHg 92%
    04:00 +15°C° 0 mm 1 m/s 748 mmHg 92%
    05:00 +16°C° 0 mm 1 m/s 748 mmHg 88%
    06:00 +19°C° 0 mm 1 m/s 748 mmHg 84%
    07:00 +20°C° 0 mm 1 m/s 748 mmHg 80%
    08:00 +22°C° 0 mm 1 m/s 749 mmHg 73%
    09:00 +24°C° 0 mm 1 m/s 749 mmHg 66%
    10:00 +26°C° 0 mm 1 m/s 749 mmHg 59%
    11:00 +26°C° 0.4 mm 1 m/s 749 mmHg 57%
    12:00 +27°C° 0.4 mm 2 m/s 748 mmHg 56%
    13:00 +27°C° 0.4 mm 3 m/s 748 mmHg 54%
    14:00 +27°C° 0.1 mm 2 m/s 748 mmHg 52%
    15:00 +28°C° 0.1 mm 2 m/s 748 mmHg 50%
    16:00 +28°C° 0.1 mm 2 m/s 748 mmHg 48%
    17:00 +27°C° 0 mm 2 m/s 748 mmHg 53%
    18:00 +25°C° 0 mm 1 m/s 748 mmHg 59%
    19:00 +24°C° 0 mm 1 m/s 748 mmHg 64%
    20:00 +23°C° 0.1 mm 1 m/s 749 mmHg 67%
    21:00 +22°C° 0.1 mm 1 m/s 749 mmHg 70%
    22:00 +19°C° 0.1 mm 0 m/s 749 mmHg 72%
    23:00 +18°C° 0.1 mm 0 m/s 749 mmHg 75%

    Depois de amanhã, 20 Julho, Sábado

    Tempo Temperatura Precipitação Vento Pressão Humidade
    00:00 +18°C° 0.1 mm 0 m/s 749 mmHg 77%
    01:00 +17°C° 0.1 mm 0 m/s 749 mmHg 79%
    02:00 +17°C° 0 mm 0 m/s 749 mmHg 80%
    03:00 +16°C° 0 mm 0 m/s 750 mmHg 82%
    04:00 +16°C° 0 mm 0 m/s 750 mmHg 84%
    05:00 +18°C° 0 mm 0 m/s 750 mmHg 79%
    06:00 +19°C° 0 mm 0 m/s 750 mmHg 75%
    07:00 +21°C° 0 mm 0 m/s 750 mmHg 71%
    08:00 +25°C° 0 mm 1 m/s 750 mmHg 65%
    09:00 +26°C° 0 mm 1 m/s 751 mmHg 60%
    10:00 +28°C° 0 mm 1 m/s 751 mmHg 54%
    11:00 +29°C° 0.1 mm 2 m/s 751 mmHg 51%
    12:00 +30°C° 0.1 mm 2 m/s 751 mmHg 49%
    13:00 +30°C° 0.1 mm 3 m/s 750 mmHg 46%
    14:00 +30°C° 0 mm 2 m/s 750 mmHg 47%
    15:00 +30°C° 0 mm 2 m/s 750 mmHg 48%
    16:00 +30°C° 0 mm 2 m/s 750 mmHg 49%
    17:00 +28°C° 0 mm 1 m/s 750 mmHg 55%
    18:00 +27°C° 0 mm 1 m/s 750 mmHg 61%
    19:00 +23°C° 0 mm 0 m/s 750 mmHg 68%
    20:00 +22°C° 0 mm 0 m/s 751 mmHg 70%
    21:00 +21°C° 0 mm 0 m/s 751 mmHg 73%
    22:00 +20°C° 0 mm 0 m/s 751 mmHg 76%
    23:00 +19°C° 0 mm 0 m/s 751 mmHg 77%

    21 Julho, Domingo

    Tempo Temperatura Precipitação Vento Pressão Humidade
    00:00 +19°C° 0 mm 0 m/s 751 mmHg 78%
    01:00 +19°C° 0 mm 0 m/s 751 mmHg 79%
    02:00 +18°C° 0 mm 0 m/s 751 mmHg 81%
    03:00 +18°C° 0 mm 0 m/s 751 mmHg 82%
    04:00 +18°C° 0 mm 0 m/s 751 mmHg 83%
    05:00 +19°C° 0 mm 0 m/s 751 mmHg 78%
    06:00 +21°C° 0 mm 0 m/s 751 mmHg 73%
    07:00 +23°C° 0 mm 0 m/s 751 mmHg 68%
    08:00 +27°C° 0 mm 1 m/s 751 mmHg 62%
    09:00 +28°C° 0 mm 2 m/s 752 mmHg 56%
    10:00 +30°C° 0 mm 2 m/s 752 mmHg 50%
    11:00 +31°C° 0 mm 3 m/s 752 mmHg 48%
    12:00 +33°C° 0 mm 3 m/s 751 mmHg 45%
    13:00 +34°C° 0 mm 4 m/s 751 mmHg 43%
    14:00 +34°C° 0 mm 4 m/s 751 mmHg 44%
    15:00 +34°C° 0 mm 4 m/s 751 mmHg 45%
    16:00 +34°C° 0 mm 4 m/s 751 mmHg 46%
    17:00 +31°C° 0 mm 3 m/s 751 mmHg 52%
    18:00 +29°C° 0 mm 3 m/s 751 mmHg 58%
    19:00 +28°C° 0 mm 2 m/s 751 mmHg 64%
    20:00 +27°C° 0.3 mm 2 m/s 751 mmHg 68%
    21:00 +25°C° 0.3 mm 2 m/s 751 mmHg 72%
    22:00 +24°C° 0.3 mm 2 m/s 751 mmHg 76%
    23:00 +24°C° 0.2 mm 2 m/s 751 mmHg 78%

    22 Julho, Segunda-feira

    Tempo Temperatura Precipitação Vento Pressão Humidade
    00:00 +23°C° 0.2 mm 2 m/s 751 mmHg 81%
    01:00 +22°C° 0.2 mm 1 m/s 751 mmHg 83%
    02:00 +22°C° 0 mm 1 m/s 751 mmHg 85%
    03:00 +20°C° 0 mm 2 m/s 751 mmHg 87%
    04:00 +20°C° 0 mm 2 m/s 752 mmHg 89%
    05:00 +21°C° 0 mm 2 m/s 752 mmHg 84%
    06:00 +23°C° 0 mm 2 m/s 752 mmHg 79%
    07:00 +25°C° 0 mm 2 m/s 752 mmHg 74%
    08:00 +26°C° 0 mm 2 m/s 752 mmHg 66%
    09:00 +28°C° 0 mm 2 m/s 753 mmHg 59%
    10:00 +30°C° 0 mm 2 m/s 753 mmHg 52%
    11:00 +30°C° 0.1 mm 2 m/s 752 mmHg 50%
    12:00 +30°C° 0.1 mm 1 m/s 752 mmHg 49%
    13:00 +31°C° 0.1 mm 1 m/s 752 mmHg 47%
    14:00 +30°C° 0 mm 1 m/s 752 mmHg 47%
    15:00 +30°C° 0 mm 1 m/s 752 mmHg 48%
    16:00 +30°C° 0 mm 2 m/s 752 mmHg 48%
    17:00 +29°C° 0 mm 1 m/s 752 mmHg 53%
    18:00 +28°C° 0 mm 1 m/s 752 mmHg 58%
    19:00 +26°C° 0 mm 1 m/s 752 mmHg 63%
    20:00 +26°C° 0 mm 1 m/s 752 mmHg 63%
    21:00 +25°C° 0 mm 2 m/s 752 mmHg 64%
    22:00 +24°C° 0 mm 2 m/s 752 mmHg 64%
    23:00 +23°C° 0 mm 2 m/s 752 mmHg 67%

    23 Julho, Terça-feira

    Tempo Temperatura Precipitação Vento Pressão Humidade
    00:00 +21°C° 0 mm 2 m/s 752 mmHg 70%
    01:00 +20°C° 0 mm 2 m/s 752 mmHg 73%
    02:00 +20°C° 0 mm 2 m/s 752 mmHg 74%
    03:00 +19°C° 0 mm 2 m/s 752 mmHg 74%
    04:00 +19°C° 0 mm 2 m/s 752 mmHg 75%
    05:00 +20°C° 0 mm 2 m/s 752 mmHg 72%
    06:00 +21°C° 0 mm 2 m/s 752 mmHg 69%
    07:00 +24°C° 0 mm 3 m/s 752 mmHg 66%
    08:00 +25°C° 0 mm 3 m/s 752 mmHg 61%
    09:00 +26°C° 0 mm 3 m/s 752 mmHg 55%
    10:00 +27°C° 0 mm 3 m/s 752 mmHg 50%
    11:00 +28°C° 0 mm 3 m/s 751 mmHg 46%
    12:00 +29°C° 0 mm 3 m/s 751 mmHg 43%
    13:00 +30°C° 0 mm 3 m/s 751 mmHg 40%
    14:00 +30°C° 0 mm 3 m/s 751 mmHg 42%
    15:00 +29°C° 0 mm 3 m/s 750 mmHg 44%
    16:00 +29°C° 0 mm 3 m/s 750 mmHg 46%
    17:00 +27°C° 0 mm 3 m/s 750 mmHg 51%
    18:00 +25°C° 0 mm 3 m/s 750 mmHg 57%
    19:00 +24°C° 0 mm 3 m/s 750 mmHg 62%
    20:00 +22°C° 0 mm 3 m/s 750 mmHg 62%
    21:00 +21°C° 0 mm 3 m/s 750 mmHg 63%
    22:00 +20°C° 0 mm 2 m/s 750 mmHg 64%
    23:00 +19°C° 0 mm 2 m/s 750 mmHg 65%
    Mostrar mais